TimeCST,TemperatureF,Dew PointF,Humidity,Sea Level PressureIn,VisibilityMPH,Wind Direction,Wind SpeedMPH,Gust SpeedMPH,PrecipitationIn,Events,Conditions,WindDirDegrees,DateUTC
12:22 AM,64.4,64.4,100,29.76,1.2,West,3.5,-,N/A,,Overcast,260,2011-11-16 06:22:00
12:53 AM,64.4,64.4,100,29.76,1.2,West,3.5,-,N/A,,Overcast,270,2011-11-16 06:53:00
1:20 AM,64.4,64.4,100,29.75,2.5,SSW,3.5,-,N/A,,Overcast,210,2011-11-16 07:20:00
1:32 AM,64.4,62.6,94,29.75,3.0,Calm,Calm,-,N/A,,Overcast,0,2011-11-16 07:32:00
1:51 AM,64.4,62.6,94,29.74,5.0,West,3.5,-,N/A,,Mostly Cloudy,270,2011-11-16 07:51:00
1:53 AM,64.0,63.0,96,29.73,5.0,West,3.5,-,N/A,,Mostly Cloudy,270,2011-11-16 07:53:00
2:53 AM,62.1,61.0,96,29.73,2.5,Calm,Calm,-,N/A,,Clear,0,2011-11-16 08:53:00
3:00 AM,62.6,60.8,94,29.74,2.0,Calm,Calm,-,N/A,,Partly Cloudy,0,2011-11-16 09:00:00
3:13 AM,62.6,60.8,94,29.75,1.2,Calm,Calm,-,N/A,,Partly Cloudy,0,2011-11-16 09:13:00
3:27 AM,62.6,60.8,94,29.74,0.8,South,4.6,-,N/A,,Mist,170,2011-11-16 09:27:00
3:49 AM,62.6,60.8,94,29.75,0.2,SSW,4.6,-,N/A,Fog,Fog,200,2011-11-16 09:49:00
3:53 AM,62.1,62.1,100,29.73,0.2,SSW,4.6,-,N/A,Fog,Fog,200,2011-11-16 09:53:00
4:01 AM,62.6,62.6,100,29.74,0.2,Calm,Calm,-,N/A,Fog,Fog,0,2011-11-16 10:01:00
4:53 AM,62.1,62.1,100,29.74,0.2,Calm,Calm,-,N/A,Fog,Fog,0,2011-11-16 10:53:00
5:09 AM,62.6,62.6,100,29.76,0.2,Calm,Calm,-,N/A,Fog,Fog,0,2011-11-16 11:09:00
5:16 AM,62.6,62.6,100,29.76,0.5,Calm,Calm,-,N/A,Fog,Fog,0,2011-11-16 11:16:00
5:23 AM,62.6,62.6,100,29.76,1.0,Calm,Calm,-,N/A,,Mist,0,2011-11-16 11:23:00
5:32 AM,62.6,62.6,100,29.77,3.0,Calm,Calm,-,N/A,,Overcast,0,2011-11-16 11:32:00
5:53 AM,62.6,62.6,100,29.78,5.0,Calm,Calm,-,N/A,,Overcast,0,2011-11-16 11:53:00
6:12 AM,62.6,62.6,100,29.79,2.0,Calm,Calm,-,N/A,,Overcast,0,2011-11-16 12:12:00
6:25 AM,62.6,62.6,100,29.80,4.0,Calm,Calm,-,N/A,,Overcast,0,2011-11-16 12:25:00
6:53 AM,63.0,62.1,97,29.80,3.0,Calm,Calm,-,N/A,,Overcast,0,2011-11-16 12:53:00
7:01 AM,62.6,62.6,100,29.82,1.8,Calm,Calm,-,N/A,,Overcast,0,2011-11-16 13:01:00
7:14 AM,62.6,62.6,100,29.82,0.5,Calm,Calm,-,N/A,Fog,Fog,0,2011-11-16 13:14:00
7:53 AM,62.6,62.6,100,29.85,0.5,Calm,Calm,-,N/A,Fog,Fog,0,2011-11-16 13:53:00
8:24 AM,64.4,62.6,94,29.86,1.2,Calm,Calm,-,N/A,,Overcast,0,2011-11-16 14:24:00
8:34 AM,64.4,62.6,94,29.86,2.0,Calm,Calm,-,N/A,,Overcast,0,2011-11-16 14:34:00
8:53 AM,64.0,64.0,100,29.86,2.5,Calm,Calm,-,N/A,,Overcast,0,2011-11-16 14:53:00
9:05 AM,64.4,64.4,100,29.87,1.5,Calm,Calm,-,N/A,,Overcast,0,2011-11-16 15:05:00
9:11 AM,64.4,64.4,100,29.88,2.0,Calm,Calm,-,N/A,,Overcast,0,2011-11-16 15:11:00
9:27 AM,64.4,64.4,100,29.89,4.0,Calm,Calm,-,N/A,,Overcast,0,2011-11-16 15:27:00
9:53 AM,66.2,64.4,94,29.90,4.0,NW,3.5,-,N/A,,Overcast,310,2011-11-16 15:53:00
10:08 AM,64.4,64.4,100,29.90,2.5,NW,3.5,-,N/A,,Overcast,310,2011-11-16 16:08:00
10:18 AM,66.2,64.4,94,29.90,3.0,North,3.5,-,N/A,,Overcast,360,2011-11-16 16:18:00
10:21 AM,66.2,64.4,94,29.90,2.5,North,3.5,-,N/A,,Overcast,10,2011-11-16 16:21:00
10:35 AM,66.2,62.6,88,29.90,6.0,ENE,8.1,-,0.00,Rain,Light Rain,60,2011-11-16 16:35:00
10:43 AM,66.2,62.6,88,29.90,8.0,ENE,6.9,-,0.00,,Overcast,70,2011-11-16 16:43:00
10:53 AM,66.0,63.0,90,29.89,7.0,ENE,6.9,-,0.00,,Mostly Cloudy,70,2011-11-16 16:53:00
11:00 AM,66.2,64.4,94,29.90,7.0,East,6.9,-,N/A,,Scattered Clouds,80,2011-11-16 17:00:00
11:15 AM,68.0,64.4,88,29.89,8.0,ENE,8.1,-,N/A,,Partly Cloudy,60,2011-11-16 17:15:00
11:53 AM,70.0,63.0,78,29.88,10.0,NE,5.8,-,N/A,,Mostly Cloudy,40,2011-11-16 17:53:00
12:04 PM,69.8,62.6,78,29.90,10.0,East,5.8,-,N/A,,Scattered Clouds,100,2011-11-16 18:04:00
12:29 PM,69.8,62.6,78,29.90,10.0,NE,5.8,-,N/A,,Mostly Cloudy,40,2011-11-16 18:29:00
12:36 PM,71.6,62.6,73,29.89,10.0,NNE,5.8,-,N/A,,Scattered Clouds,20,2011-11-16 18:36:00
12:53 PM,72.0,63.0,73,29.87,10.0,NNE,5.8,-,N/A,,Scattered Clouds,30,2011-11-16 18:53:00
1:53 PM,72.0,61.0,68,29.87,10.0,NE,4.6,-,N/A,,Mostly Cloudy,40,2011-11-16 19:53:00
2:53 PM,71.1,61.0,70,29.88,10.0,North,8.1,-,N/A,,Mostly Cloudy,360,2011-11-16 20:53:00
3:53 PM,68.0,61.0,78,29.92,10.0,NNE,12.7,-,N/A,,Mostly Cloudy,20,2011-11-16 21:53:00
4:48 PM,66.2,59.0,78,29.97,10.0,NNW,12.7,-,N/A,,Mostly Cloudy,340,2011-11-16 22:48:00
4:53 PM,64.9,57.9,78,29.97,10.0,NNW,13.8,-,N/A,,Mostly Cloudy,340,2011-11-16 22:53:00
5:53 PM,60.1,54.0,80,30.03,10.0,NNW,17.3,25.3,N/A,,Overcast,340,2011-11-16 23:53:00
6:16 PM,60.8,53.6,77,30.06,10.0,North,19.6,24.2,N/A,,Overcast,350,2011-11-17 00:16:00
6:53 PM,57.9,53.1,84,30.09,10.0,North,18.4,27.6,N/A,,Overcast,360,2011-11-17 00:53:00
7:23 PM,57.2,48.2,72,30.13,10.0,North,15.0,25.3,N/A,,Overcast,10,2011-11-17 01:23:00
7:53 PM,55.9,46.9,72,30.15,10.0,NNE,17.3,27.6,N/A,,Overcast,20,2011-11-17 01:53:00
8:53 PM,55.9,46.9,72,30.18,10.0,North,10.4,18.4,N/A,,Overcast,10,2011-11-17 02:53:00
9:53 PM,54.0,45.0,72,30.23,10.0,North,10.4,-,N/A,,Overcast,10,2011-11-17 03:53:00
10:00 PM,53.6,44.6,72,30.24,10.0,North,13.8,20.7,N/A,,Overcast,10,2011-11-17 04:00:00
10:53 PM,53.1,42.1,66,30.26,10.0,North,13.8,-,N/A,,Overcast,10,2011-11-17 04:53:00
11:53 PM,50.0,42.1,74,30.29,10.0,North,10.4,21.9,N/A,,Partly Cloudy,10,2011-11-17 05:53:00